| time (UTC) | temp F | wind direction | speed knots | gust knots | rain 1hr in | rain 24hr in | rain mn in | humidity % | barometer mb |
| 20260510191526 | 63 | 65 | 5.2 | 10.4 | 0.00 | 0.00 | 0.00 | 47 | 1010.3 |
| 20260510190022 | 63 | 67 | 0.0 | 3.5 | 0.00 | 0.00 | 0.00 | 44 | 1010.5 |
| 20260510184519 | 63 | 96 | 4.3 | 8.7 | 0.00 | 0.00 | 0.00 | 44 | 1010.0 |
| 20260510183019 | 62 | 59 | 1.7 | 10.4 | 0.00 | 0.00 | 0.00 | 44 | 1010.5 |
| 20260510181518 | 61 | 69 | 3.5 | 8.7 | 0.00 | 0.00 | 0.00 | 46 | 1009.9 |
| 20260510180015 | 62 | 57 | 5.2 | 9.6 | 0.00 | 0.00 | 0.00 | 43 | 1010.0 |
| 20260510174514 | 66 | 54 | 1.7 | 6.1 | 0.00 | 0.00 | 0.00 | 41 | 1009.8 |
| 20260510173017 | 65 | 61 | 2.6 | 8.7 | 0.00 | 0.00 | 0.00 | 41 | 1009.4 |
| 20260510171509 | 62 | 49 | 0.9 | 5.2 | 0.00 | 0.00 | 0.00 | 43 | 1009.2 |
| 20260510170009 | 63 | 57 | 1.7 | 4.3 | 0.00 | 0.00 | 0.00 | 41 | 1008.9 |
| 20260510164511 | 66 | 65 | 3.5 | 7.8 | 0.00 | 0.00 | 0.00 | 38 | 1008.8 |
| 20260510163007 | 66 | 71 | 3.5 | 10.4 | 0.00 | 0.00 | 0.00 | 38 | 1008.7 |
| 20260510161508 | 68 | 61 | 5.2 | 9.6 | 0.00 | 0.00 | 0.00 | 35 | 1008.6 |
| 20260510160002 | 66 | 76 | 6.1 | 10.4 | 0.00 | 0.00 | 0.00 | 35 | 1008.5 |
| 20260510154558 | 67 | 65 | 1.7 | 8.7 | 0.00 | 0.00 | 0.00 | 33 | 1008.8 |
| 20260510153100 | 67 | 71 | 4.3 | 9.6 | 0.00 | 0.00 | 0.00 | 30 | 1008.8 |
| 20260510151554 | 66 | 53 | 0.9 | 7.8 | 0.00 | 0.00 | 0.00 | 32 | 1008.6 |
| 20260510150058 | 66 | 54 | 1.7 | 7.0 | 0.00 | 0.00 | 0.00 | 30 | 1008.3 |
| 20260510144547 | 65 | 52 | 0.0 | 0.0 | 0.00 | 0.00 | 0.00 | 31 | 1008.1 |
| 20260510143052 | 63 | 53 | 0.0 | 0.0 | 0.00 | 0.00 | 0.00 | 33 | 1008.2 |
| 20260510141542 | 63 | 22 | 0.0 | 4.3 | 0.00 | 0.00 | 0.00 | 32 | 1008.1 |
| 20260510140039 | 63 | 23 | 0.0 | 0.0 | 0.00 | 0.00 | 0.00 | 33 | 1008.0 |
| 20260510134539 | 62 | 40 | 0.0 | 0.0 | 0.00 | 0.00 | 0.00 | 33 | 1008.0 |
| 20260510133036 | 61 | 290 | 0.0 | 3.5 | 0.00 | 0.00 | 0.00 | 33 | 1007.3 |
| 20260510131530 | 56 | 82 | 0.9 | 7.0 | 0.00 | 0.00 | 0.00 | 38 | 1007.5 |
| 20260510130023 | 51 | 46 | 0.0 | 3.5 | 0.00 | 0.00 | 0.00 | 40 | 1007.3 |
| 20260510124524 | 50 | 254 | 0.9 | 5.2 | 0.00 | 0.00 | 0.00 | 41 | 1006.4 |
| 20260510123016 | 50 | 342 | 0.0 | 0.0 | 0.00 | 0.00 | 0.00 | 41 | 1006.1 |
| 20260510121511 | 49 | 259 | 0.0 | 1.7 | 0.00 | 0.00 | 0.00 | 43 | 1005.7 |
| 20260510120011 | 49 | 245 | 0.9 | 4.3 | 0.00 | 0.00 | 0.00 | 42 | 1005.5 |
| 20260510114508 | 50 | 290 | 0.0 | 4.3 | 0.00 | 0.00 | 0.00 | 42 | 1005.5 |
| 20260510113011 | 50 | 273 | 0.9 | 5.2 | 0.00 | 0.00 | 0.00 | 41 | 1005.3 |
| 20260510111505 | 50 | 264 | 1.7 | 6.1 | 0.00 | 0.00 | 0.00 | 42 | 1005.2 |
| 20260510110003 | 49 | 232 | 0.0 | 3.5 | 0.00 | 0.00 | 0.00 | 43 | 1005.1 |
| 20260510104501 | 49 | 285 | 0.0 | 3.5 | 0.00 | 0.00 | 0.00 | 43 | 1004.9 |
| 20260510103104 | 49 | 279 | 0.9 | 3.5 | 0.00 | 0.00 | 0.00 | 43 | 1004.6 |
| 20260510101557 | 50 | 259 | 0.9 | 6.1 | 0.00 | 0.00 | 0.00 | 42 | 1004.6 |
| 20260510100055 | 51 | 234 | 0.9 | 7.0 | 0.00 | 0.00 | 0.00 | 40 | 1004.5 |
| 20260510094554 | 51 | 266 | 1.7 | 7.0 | 0.00 | 0.00 | 0.00 | 39 | 1004.4 |
| 20260510093104 | 51 | 256 | 0.0 | 7.0 | 0.00 | 0.00 | 0.00 | 40 | 1004.3 |
| 20260510091554 | 51 | 243 | 1.7 | 7.8 | 0.00 | 0.00 | 0.00 | 39 | 1004.2 |
| 20260510090051 | 51 | 253 | 0.9 | 6.1 | 0.00 | 0.00 | 0.00 | 39 | 1004.1 |
| 20260510084552 | 52 | 282 | 0.0 | 6.1 | 0.00 | 0.00 | 0.00 | 38 | 1004.1 |
| 20260510083051 | 52 | 272 | 0.0 | 8.7 | 0.00 | 0.00 | 0.00 | 38 | 1004.0 |
| 20260510081607 | 52 | 273 | 1.7 | 7.8 | 0.00 | 0.00 | 0.00 | 38 | 1004.2 |
| 20260510080042 | 51 | 240 | 0.9 | 6.1 | 0.00 | 0.00 | 0.00 | 38 | 1004.3 |
| 20260510074542 | 52 | 232 | 1.7 | 6.1 | 0.00 | 0.00 | 0.00 | 37 | 1004.5 |
| 20260510073052 | 51 | 264 | 1.7 | 5.2 | 0.00 | 0.00 | 0.00 | 37 | 1004.5 |
| 20260510071538 | 51 | 248 | 1.7 | 8.7 | 0.00 | 0.00 | 0.00 | 37 | 1004.7 |
| 20260510070038 | 52 | 231 | 1.7 | 7.0 | 0.00 | 0.00 | 0.00 | 37 | 1004.7 |
| 20260510064547 | 52 | 263 | 0.0 | 0.0 | 0.00 | 0.00 | 0.00 | 37 | 1004.7 |
| 20260510063041 | 52 | 263 | 0.0 | 4.3 | 0.00 | 0.00 | 0.00 | 36 | 1004.8 |
| 20260510061534 | 52 | 269 | 1.7 | 7.0 | 0.00 | 0.00 | 0.00 | 36 | 1004.9 |
| 20260510060040 | 51 | 244 | 0.0 | 0.0 | 0.00 | 0.00 | 0.00 | 37 | 1004.9 |
| 20260510054527 | 52 | 272 | 0.0 | 0.0 | 0.00 | 0.00 | 0.00 | 36 | 1004.9 |
| 20260510053038 | 52 | 269 | 0.0 | 0.0 | 0.00 | 0.00 | 0.00 | 36 | 1005.0 |
| 20260510051526 | 52 | 262 | 0.0 | 0.0 | 0.00 | 0.00 | 0.00 | 36 | 1005.2 |
| 20260510050026 | 53 | 275 | 0.0 | 0.0 | 0.00 | 0.00 | 0.00 | 35 | 1005.1 |
| 20260510044541 | 53 | 263 | 0.0 | 0.0 | 0.00 | 0.00 | 0.00 | 36 | 1005.2 |
| 20260510043024 | 53 | 272 | 0.0 | 0.0 | 0.00 | 0.00 | 0.00 | 35 | 1005.2 |
| 20260510041524 | 54 | 279 | 0.0 | 0.0 | 0.00 | 0.00 | 0.00 | 34 | 1005.2 |
| 20260510040036 | 55 | 259 | 0.0 | 0.0 | 0.00 | 0.00 | 0.00 | 32 | 1005.3 |
| 20260510034523 | 56 | 273 | 0.0 | 0.0 | 0.00 | 0.00 | 0.00 | 31 | 1005.2 |
| 20260510033034 | 57 | 278 | 0.0 | 0.0 | 0.00 | 0.00 | 0.00 | 30 | 1005.1 |
| 20260510031522 | 58 | 279 | 0.0 | 0.0 | 0.00 | 0.00 | 0.00 | 28 | 1005.0 |
| 20260510030021 | 61 | 287 | 0.0 | 0.0 | 0.00 | 0.00 | 0.00 | 26 | 1004.8 |
| 20260510024521 | 65 | 288 | 0.0 | 0.0 | 0.00 | 0.00 | 0.00 | 22 | 1004.6 |
| 20260510023020 | 66 | 288 | 0.0 | 0.0 | 0.00 | 0.00 | 0.00 | 21 | 1004.4 |
| 20260510021519 | 67 | 288 | 0.0 | 0.0 | 0.00 | 0.00 | 0.00 | 20 | 1004.2 |
| 20260510020022 | 69 | 288 | 0.0 | 0.0 | 0.00 | 0.00 | 0.00 | 20 | 1004.1 |
| 20260510014521 | 70 | 288 | 0.0 | 0.0 | 0.00 | 0.00 | 0.00 | 18 | 1003.9 |
| 20260510013018 | 72 | 236 | 0.0 | 0.0 | 0.00 | 0.00 | 0.00 | 18 | 1003.7 |
| 20260510011519 | 73 | 237 | 1.7 | 8.7 | 0.00 | 0.00 | 0.00 | 17 | 1003.5 |
| 20260510010022 | 75 | 246 | 0.0 | 9.6 | 0.00 | 0.00 | 0.00 | 16 | 1003.5 |
| 20260510004518 | 76 | 234 | 0.0 | 7.8 | 0.00 | 0.00 | 0.00 | 15 | 1003.5 |
| 20260510003017 | 77 | 239 | 0.9 | 7.0 | 0.00 | 0.00 | 0.00 | 15 | 1003.4 |
| 20260510001516 | 77 | 241 | 0.0 | 9.6 | 0.00 | 0.00 | 0.00 | 15 | 1003.4 |
| 20260510000018 | 77 | 294 | 2.6 | 10.4 | 0.00 | 0.00 | 0.00 | 14 | 1003.6 |
| 20260509234520 | 78 | 254 | 5.2 | 12.2 | 0.00 | 0.00 | 0.00 | 14 | 1003.6 |
| 20260509233012 | 78 | 291 | 5.2 | 11.3 | 0.00 | 0.00 | 0.00 | 14 | 1003.7 |
| 20260509231513 | 78 | 331 | 5.2 | 13.0 | 0.00 | 0.00 | 0.00 | 14 | 1003.5 |
| 20260509230018 | 78 | 246 | 1.7 | 13.9 | 0.00 | 0.00 | 0.00 | 14 | 1003.7 |
| 20260509224509 | 79 | 103 | 3.5 | 19.1 | 0.00 | 0.00 | 0.00 | 14 | 1003.6 |
| 20260509223010 | 79 | 270 | 4.3 | 12.2 | 0.00 | 0.00 | 0.00 | 13 | 1003.8 |
| 20260509221506 | 79 | 220 | 6.1 | 15.6 | 0.00 | 0.00 | 0.00 | 13 | 1004.0 |
| 20260509220004 | 81 | 232 | 0.9 | 9.6 | 0.00 | 0.00 | 0.00 | 14 | 1004.1 |
| 20260509214502 | 82 | 203 | 0.0 | 12.2 | 0.00 | 0.00 | 0.00 | 14 | 1004.3 |
| 20260509213102 | 80 | 229 | 0.0 | 9.6 | 0.00 | 0.00 | 0.00 | 14 | 1004.5 |
| 20260509211603 | 80 | 229 | 3.5 | 11.3 | 0.00 | 0.00 | 0.00 | 14 | 1004.7 |
| 20260509210055 | 80 | 330 | 0.9 | 13.0 | 0.00 | 0.00 | 0.00 | 14 | 1005.1 |
| 20260509204556 | 81 | 290 | 3.5 | 13.9 | 0.00 | 0.00 | 0.00 | 14 | 1005.1 |
| 20260509203055 | 81 | 157 | 0.0 | 12.2 | 0.00 | 0.00 | 0.00 | 14 | 1005.2 |
| 20260509201600 | 81 | 284 | 0.0 | 9.6 | 0.00 | 0.00 | 0.00 | 14 | 1005.2 |
| 20260509200103 | 80 | 319 | 4.3 | 13.9 | 0.00 | 0.00 | 0.00 | 14 | 1005.5 |
| 20260509194547 | 79 | 231 | 3.5 | 10.4 | 0.00 | 0.00 | 0.00 | 14 | 1005.5 |
| 20260509193108 | 77 | 318 | 0.9 | 7.0 | 0.00 | 0.00 | 0.00 | 15 | 1005.7 |